FDX4RL EGLL-EGPH

Flight info

Callsign FDX4RL
Flight time N/A
Altitude 32000
Route ULTIB T420 TNT UN57 POL UN601 RIBEL DCT INPIP
Aircraft B738/M-SDE2E3FGHIRWXY/LB1

Departure

Time 2026-05-06 17:48
Airport London Heathrow Airport (EGLL)

Arrival

Time N/A
Airport Edinburgh Airport (EGPH)
Time Latitude Longitude Altitude Speed Heading
2026-05-06 17:15 51.46181 -0.46604 82 ft 0 kts 180°
2026-05-06 17:32 51.46184 -0.46604 83 ft 3 kts 180°
2026-05-06 17:32 51.46211 -0.46604 85 ft 4 kts 181°
2026-05-06 17:33 51.46238 -0.46602 86 ft 4 kts 184°
2026-05-06 17:33 51.46265 -0.46599 85 ft 4 kts 187°
2026-05-06 17:33 51.46291 -0.46592 87 ft 4 kts 196°
2026-05-06 17:33 51.46315 -0.46575 91 ft 4 kts 230°
2026-05-06 17:34 51.46321 -0.46559 89 ft 1 kts 270°
2026-05-06 17:38 51.46321 -0.46576 89 ft 4 kts 270°
2026-05-06 17:38 51.46321 -0.46666 86 ft 12 kts 270°
2026-05-06 17:38 51.46322 -0.46836 85 ft 17 kts 270°
2026-05-06 17:38 51.46322 -0.47031 87 ft 17 kts 270°
2026-05-06 17:39 51.46321 -0.47230 86 ft 19 kts 270°
2026-05-06 17:39 51.46336 -0.47441 90 ft 19 kts 277°
2026-05-06 17:39 51.46329 -0.47646 91 ft 18 kts 249°
2026-05-06 17:39 51.46269 -0.47822 88 ft 18 kts 240°
2026-05-06 17:40 51.46250 -0.48010 87 ft 17 kts 270°
2026-05-06 17:40 51.46250 -0.48202 84 ft 18 kts 269°
2026-05-06 17:40 51.46249 -0.48396 83 ft 17 kts 269°
2026-05-06 17:40 51.46250 -0.48566 85 ft 11 kts 278°
2026-05-06 17:41 51.46275 -0.48663 87 ft 8 kts 305°
2026-05-06 17:41 51.46286 -0.48682 87 ft 0 kts 312°
2026-05-06 17:45 51.46294 -0.48695 86 ft 7 kts 317°
2026-05-06 17:45 51.46356 -0.48746 89 ft 12 kts 346°
2026-05-06 17:46 51.46449 -0.48742 88 ft 15 kts 25°
2026-05-06 17:46 51.46478 -0.48625 87 ft 2 kts 89°
2026-05-06 17:46 51.46478 -0.48623 87 ft 0 kts 89°
2026-05-06 17:47 51.46480 -0.48412 88 ft 61 kts 90°
2026-05-06 17:48 51.46484 -0.47221 90 ft 150 kts 90°
2026-05-06 17:48 51.46432 -0.45259 587 ft 192 kts 91°
2026-05-06 17:48 51.46287 -0.43103 1914 ft 190 kts 95°
2026-05-06 17:48 51.46320 -0.40916 2786 ft 210 kts 66°
2026-05-06 17:49 51.47256 -0.39046 3288 ft 224 kts 41°
2026-05-06 17:49 51.48311 -0.37161 3913 ft 238 kts 49°
2026-05-06 17:49 51.49419 -0.34974 4521 ft 256 kts 50°
2026-05-06 17:49 51.50568 -0.32743 5379 ft 262 kts 49°
2026-05-06 17:50 51.51748 -0.30493 5836 ft 264 kts 49°
2026-05-06 17:50 51.52730 -0.28003 5981 ft 267 kts 68°
2026-05-06 17:50 51.53340 -0.25167 6006 ft 270 kts 71°
2026-05-06 17:50 51.53948 -0.22324 5996 ft 268 kts 70°
2026-05-06 17:51 51.54711 -0.19615 5981 ft 267 kts 50°
2026-05-06 17:51 51.56223 -0.17979 6003 ft 265 kts 14°
2026-05-06 17:51 51.58041 -0.18072 6046 ft 266 kts 339°
2026-05-06 17:51 51.59533 -0.19776 6072 ft 266 kts 315°
2026-05-06 17:52 51.60886 -0.21841 6055 ft 268 kts 320°
2026-05-06 17:52 51.62361 -0.23643 6058 ft 269 kts 324°
2026-05-06 17:52 51.63853 -0.25400 6051 ft 269 kts 325°
2026-05-06 17:52 51.65405 -0.27100 6053 ft 270 kts 327°
2026-05-06 17:53 51.66982 -0.28733 6052 ft 270 kts 328°
2026-05-06 17:53 51.68603 -0.30338 6050 ft 270 kts 329°
2026-05-06 17:53 51.69669 -0.31377 6048 ft 270 kts 329°
2026-05-06 17:53 51.71797 -0.33434 6054 ft 269 kts 329°
2026-05-06 17:54 51.73401 -0.34977 6055 ft 269 kts 329°
2026-05-06 17:54 51.75006 -0.36519 6055 ft 268 kts 330°
2026-05-06 17:54 51.76088 -0.37558 6059 ft 268 kts 330°
2026-05-06 17:54 51.78211 -0.39598 6564 ft 265 kts 330°
2026-05-06 17:55 51.79777 -0.41104 7004 ft 270 kts 329°
2026-05-06 17:55 51.81399 -0.42670 7463 ft 272 kts 329°
2026-05-06 17:55 51.83015 -0.44245 7915 ft 271 kts 329°
2026-05-06 17:55 51.84107 -0.45313 8227 ft 272 kts 329°
2026-05-06 17:56 51.86275 -0.47434 8842 ft 272 kts 329°
2026-05-06 17:56 51.87895 -0.49019 9334 ft 272 kts 329°
2026-05-06 17:56 51.89517 -0.50606 9824 ft 274 kts 329°
2026-05-06 17:56 51.91155 -0.52210 10268 ft 277 kts 328°
2026-05-06 17:57 51.92835 -0.53857 10634 ft 293 kts 328°
2026-05-06 17:57 51.94659 -0.55647 10842 ft 319 kts 328°
2026-05-06 17:57 51.96610 -0.57552 11359 ft 332 kts 328°
2026-05-06 17:57 51.98610 -0.59501 12065 ft 339 kts 328°
2026-05-06 17:58 52.00649 -0.61491 12871 ft 343 kts 328°
2026-05-06 17:58 52.02701 -0.63494 13756 ft 346 kts 328°
2026-05-06 17:58 52.04779 -0.65527 14423 ft 351 kts 328°
2026-05-06 17:58 52.06854 -0.67560 15120 ft 355 kts 328°
2026-05-06 17:59 52.09003 -0.69668 15860 ft 358 kts 328°
2026-05-06 17:59 52.11151 -0.71777 16551 ft 363 kts 328°
2026-05-06 17:59 52.13324 -0.73913 17245 ft 367 kts 328°
2026-05-06 17:59 52.15516 -0.76079 17963 ft 370 kts 328°
2026-05-06 18:00 52.17698 -0.78243 18580 ft 374 kts 327°
2026-05-06 18:00 52.19962 -0.80490 19183 ft 378 kts 327°
2026-05-06 18:00 52.22214 -0.82726 19792 ft 381 kts 327°
2026-05-06 18:00 52.24492 -0.84990 20382 ft 385 kts 327°
2026-05-06 18:01 52.26789 -0.87270 20962 ft 388 kts 327°
2026-05-06 18:01 52.29079 -0.89540 21532 ft 391 kts 327°
2026-05-06 18:01 52.31449 -0.91891 22111 ft 395 kts 327°
2026-05-06 18:01 52.33773 -0.94198 22645 ft 399 kts 327°
2026-05-06 18:02 52.36158 -0.96570 23179 ft 402 kts 327°
2026-05-06 18:02 52.38555 -0.98957 23700 ft 405 kts 327°
2026-05-06 18:02 52.40970 -1.01366 24153 ft 408 kts 327°
2026-05-06 18:02 52.43397 -1.03790 24611 ft 410 kts 327°
2026-05-06 18:03 52.45845 -1.06237 25045 ft 413 kts 327°
2026-05-06 18:03 52.48334 -1.08730 25481 ft 415 kts 327°
2026-05-06 18:03 52.50770 -1.11184 25903 ft 418 kts 326°
2026-05-06 18:03 52.53250 -1.13701 26307 ft 420 kts 326°
2026-05-06 18:04 52.55741 -1.16234 26714 ft 423 kts 326°
2026-05-06 18:04 52.58287 -1.18817 27105 ft 425 kts 326°
2026-05-06 18:04 52.60777 -1.21337 27505 ft 427 kts 326°
2026-05-06 18:04 52.63314 -1.23906 27897 ft 429 kts 326°
2026-05-06 18:05 52.65857 -1.26484 28407 ft 428 kts 326°
2026-05-06 18:05 52.68383 -1.29050 29007 ft 425 kts 326°
2026-05-06 18:05 52.70894 -1.31604 29603 ft 423 kts 326°
2026-05-06 18:05 52.72587 -1.33326 29968 ft 422 kts 326°
2026-05-06 18:06 52.75897 -1.36696 30565 ft 422 kts 326°
2026-05-06 18:06 52.78392 -1.39237 30981 ft 421 kts 326°
2026-05-06 18:06 52.80073 -1.40953 31267 ft 420 kts 326°
2026-05-06 18:06 52.82557 -1.43490 31695 ft 419 kts 326°
2026-05-06 18:07 52.85035 -1.46025 32049 ft 420 kts 326°
2026-05-06 18:07 52.87533 -1.48586 32031 ft 423 kts 326°
2026-05-06 18:07 52.92527 -1.53714 32032 ft 419 kts 327°
2026-05-06 18:08 52.93177 -1.54383 32029 ft 418 kts 327°
2026-05-06 18:08 52.93458 -1.54671 32026 ft 418 kts 327°
2026-05-06 18:09 52.98359 -1.59720 32042 ft 413 kts 327°
2026-05-06 18:09 53.02009 -1.63488 32040 ft 412 kts 327°
2026-05-06 18:10 53.07007 -1.68136 32036 ft 414 kts 337°
2026-05-06 18:10 53.11634 -1.71013 32033 ft 416 kts 339°
2026-05-06 18:11 53.16597 -1.73994 32038 ft 417 kts 339°
2026-05-06 18:11 53.22049 -1.77321 32037 ft 418 kts 338°